Latest Weather Observations for Curtin

IDW60801

Issued at 7:05 am WST Saturday 25 October 2014 (issued every 30 minutes, with the page automatically refreshed every 10 minutes)

About weather observations | Map of weather stations | Latest weather observations for WA | Other Formats
Station Details ID: 003080 Name: CURTIN AERO Lat: -17.58 Lon: 123.83 Height: 77.5 m
Data from the previous 72 hours. | See also: Recent months at Curtin
Date/Time
WST
Temp
°C
App
Temp
°C
Dew
Point
Rel
Hum
%
Delta-T
°C
Wind Press
QNH
hPa
Press
MSL
hPa
Rain
since 9 am
mm
Dir
 
Spd
km/h
Gust
km/h
Spd
kts
Gust
kts
25/07:00am 27.6 31.1 23.6 79 2.8 WNW 11 17 6 9 1014.7 1014.1 0.0
25/06:30am 26.2 30.3 23.9 87 1.6 NNW 9 15 5 8 1014.2 1013.7 0.0
25/06:00am 24.7 28.7 23.8 95 0.6 N 9 11 5 6 1013.7 1013.2 0.0
25/05:30am 23.8 27.9 23.3 97 0.3 N 7 9 4 5 1013.3 1012.8 0.0
25/05:00am 23.6 27.1 22.9 96 0.5 N 9 11 5 6 1012.9 1012.4 0.0
25/04:30am 23.5 26.8 22.5 94 0.7 N 9 11 5 6 1012.6 1012.1 0.0
25/04:00am 23.6 26.9 21.9 90 1.1 N 7 9 4 5 1012.3 1011.8 0.0
25/03:30am 24.3 27.4 22.2 88 1.4 N 9 13 5 7 1011.8 1011.3 0.0
25/03:00am 24.2 26.9 21.3 84 1.9 N 9 17 5 9 1011.3 1010.8 0.0
25/02:30am 23.7 25.0 19.4 77 2.8 N 11 13 6 7 1010.7 1010.2 0.0
25/02:00am 24.3 25.9 19.1 73 3.3 NNW 9 13 5 7 1010.4 1009.9 0.0
25/01:30am 24.8 25.2 17.3 63 4.7 NNW 11 15 6 8 1010.2 1009.7 0.0
25/01:00am 24.8 25.3 16.5 60 5.1 NNW 9 11 5 6 1010.5 1010.0 0.0
25/12:30am 25.7 25.9 16.8 58 5.5 NNW 11 15 6 8 1010.5 1010.0 0.0
25/12:00am 26.3 27.0 17.9 60 5.3 NW 11 15 6 8 1011.0 1010.5 0.0
 
Date/Time
WST
Temp
°C
App
Temp
°C
Dew
Point
Rel
Hum
%
Delta-T
°C
Wind Press
QNH
hPa
Press
MSL
hPa
Rain
since 9 am
mm
Dir
 
Spd
km/h
Gust
km/h
Spd
kts
Gust
kts
24/11:30pm 26.5 28.0 18.9 63 4.9 WNW 9 11 5 6 1011.4 1010.9 0.0
24/11:00pm 26.7 28.5 20.3 68 4.2 WSW 11 13 6 7 1011.7 1011.2 0.0
24/10:30pm 26.4 29.0 20.0 68 4.2 W 6 7 3 4 1011.6 1011.1 0.0
24/10:00pm 27.2 29.8 21.2 69 4.0 WNW 9 11 5 6 1011.5 1011.0 0.0
24/09:30pm 27.1 30.3 21.6 72 3.7 NNW 7 9 4 5 1011.7 1011.2 0.0
24/09:00pm 27.0 30.0 21.3 71 3.8 NNW 7 9 4 5 1011.6 1011.1 0.0
24/08:30pm 27.8 30.5 21.3 67 4.3 NNW 9 9 5 5 1011.3 1010.8 0.0
24/08:00pm 28.7 31.9 21.7 66 4.7 NNW 7 9 4 5 1010.9 1010.4 0.0
24/07:30pm 29.5 32.5 22.0 64 5.1 NW 9 13 5 7 1010.6 1010.1 0.0
24/07:00pm 30.2 32.4 21.8 60 5.7 NNW 13 19 7 10 1010.4 1009.9 0.0
24/06:30pm 30.9 33.5 21.9 58 6.1 NNW 11 17 6 9 1010.1 1009.6 0.0
24/06:00pm 31.8 33.3 21.3 53 7.1 NNW 15 22 8 12 1009.7 1009.2 0.0
24/05:30pm 32.7 34.5 21.2 50 7.8 NNW 13 22 7 12 1009.3 1008.8 0.0
24/05:00pm 33.4 34.9 21.2 48 8.3 NW 15 22 8 12 1009.0 1008.5 0.0
24/04:30pm 34.7 35.7 21.0 44 9.3 NNW 17 22 9 12 1008.9 1008.4 0.0
24/04:00pm 35.3 35.6 20.4 41 10.0 NW 19 26 10 14 1008.9 1008.4 0.0
24/03:30pm 36.1 36.2 19.1 36 11.3 WNW 17 32 9 17 1008.9 1008.4 0.0
24/03:00pm 35.7 35.6 18.7 36 11.2 NW 17 28 9 15 1009.2 1008.7 0.0
24/02:30pm 36.5 36.9 18.1 33 12.0 NW 13 20 7 11 1009.3 1008.8 0.0
24/02:00pm 37.5 37.9 19.0 34 12.3 NW 15 20 8 11 1009.5 1009.0 0.0
24/01:30pm 36.1 36.4 18.7 36 11.5 NW 15 26 8 14 1009.8 1009.3 0.0
24/01:00pm 35.6 36.0 17.3 33 11.8 NW 11 15 6 8 1010.2 1009.7 0.0
24/12:30pm 35.8 35.3 17.9 34 11.7 NNW 17 26 9 14 1010.5 1010.0 0.0
24/12:00pm 35.5 35.7 18.6 37 11.1 NW 15 22 8 12 1011.0 1010.5 0.0
24/11:30am 35.6 36.4 18.2 35 11.4 N 11 20 6 11 1011.5 1011.0 0.0
24/11:00am 34.6 35.0 18.2 37 10.7 NW 13 26 7 14 1011.9 1011.4 0.0
24/10:30am 33.9 34.6 19.6 43 9.5 W 15 26 8 14 1012.3 1011.8 0.0
24/10:00am 32.6 33.4 19.8 46 8.5 WNW 15 26 8 14 1012.7 1012.2 0.0
24/09:30am 32.3 33.6 20.2 48 8.1 NW 13 20 7 11 1012.9 1012.4 0.0
24/09:00am 31.5 32.6 20.4 51 7.4 WNW 15 24 8 13 1013.2 1012.7 0.0
24/08:30am 30.5 32.8 21.3 58 6.2 WNW 11 19 6 10 1013.3 1012.8 0.0
24/08:00am 29.1 31.5 21.6 64 5.0 NW 11 15 6 8 1013.4 1012.9 0.0
24/07:30am 27.9 31.2 22.6 73 3.6 NNW 9 15 5 8 1013.5 1013.0 0.0
24/07:00am 27.2 31.7 23.7 81 2.4 W 6 9 3 5 1013.3 1012.8 0.0
24/06:30am 27.0 31.6 24.1 84 2.0 SW 7 9 4 5 1013.1 1012.6 0.0
24/06:00am 26.1 30.5 24.5 91 1.1 SSE 9 11 5 6 1012.7 1012.2 0.0
24/05:30am 24.2 28.9 22.6 91 1.1 NNW 2 6 1 3 1012.3 1011.8 0.0
24/05:00am 25.0 29.2 23.2 90 1.2 NNW 6 6 3 3 1011.8 1011.3 0.0
24/04:30am 25.5 29.8 23.6 89 1.3 N 7 11 4 6 1011.5 1011.0 0.0
24/04:00am 25.7 29.7 23.7 89 1.4 N 9 13 5 7 1011.0 1010.5 0.0
24/03:30am 25.7 29.6 23.6 88 1.4 N 9 13 5 7 1010.7 1010.2 0.0
24/03:00am 25.7 29.5 23.4 87 1.6 NW 9 15 5 8 1010.2 1009.7 0.0
24/02:30am 25.9 28.6 23.4 86 1.7 NW 15 22 8 12 1009.7 1009.2 0.0
24/02:00am 26.0 29.1 22.9 83 2.1 NW 11 17 6 9 1009.7 1009.2 0.0
24/01:30am 26.2 29.1 23.1 83 2.1 WNW 13 20 7 11 1009.7 1009.2 0.0
24/01:00am 26.5 29.4 23.8 85 1.9 NW 15 20 8 11 1009.8 1009.3 0.0
24/12:30am 26.7 29.2 23.8 84 2.0 NW 17 24 9 13 1010.2 1009.7 0.0
24/12:00am 27.0 29.8 23.0 79 2.7 NW 13 20 7 11 1010.6 1010.1 0.0
 
Date/Time
WST
Temp
°C
App
Temp
°C
Dew
Point
Rel
Hum
%
Delta-T
°C
Wind Press
QNH
hPa
Press
MSL
hPa
Rain
since 9 am
mm
Dir
 
Spd
km/h
Gust
km/h
Spd
kts
Gust
kts
23/11:30pm 26.9 29.1 21.9 74 3.4 WNW 13 19 7 10 1010.9 1010.4 0.0
23/11:00pm 27.3 27.8 18.3 58 5.7 WNW 13 15 7 8 1011.2 1010.7 0.0
23/10:30pm 27.4 26.8 16.7 52 6.7 W 15 19 8 10 1011.2 1010.7 0.0
23/10:00pm 28.0 27.5 16.0 48 7.4 W 13 19 7 10 1012.0 1011.5 0.0
23/09:30pm 28.1 28.3 15.7 46 7.6 NW 9 11 5 6 1012.4 1011.9 0.0
23/09:00pm 28.6 29.0 15.2 44 8.2 NNW 7 9 4 5 1012.3 1011.8 0.0
23/08:30pm 29.3 29.3 15.1 42 8.7 NNE 9 15 5 8 1012.2 1011.7 0.0
23/08:00pm 29.0 29.0 15.2 43 8.5 NNE 9 19 5 10 1012.3 1011.8 0.0
23/07:30pm 28.7 28.3 16.3 47 7.7 NE 13 17 7 9 1012.6 1012.1 0.0
23/07:00pm 28.6 27.3 17.2 50 7.2 ENE 20 35 11 19 1012.5 1012.0 0.0
23/06:39pm 29.2 26.4 17.4 49 7.5 ENE 28 48 15 26 1012.8 1012.3 0.0
23/06:30pm 30.1 28.2 18.5 49 7.5 ENE 26 43 14 23 1012.4 1011.9 0.0
23/06:00pm 30.0 30.3 22.9 65 4.9 NNE 26 43 14 23 1010.6 1010.1 0.0
23/05:30pm 32.1 32.6 20.0 48 8.0 N 17 28 9 15 1009.3 1008.8 0.0
23/05:00pm 32.9 33.5 21.1 50 8.0 N 19 26 10 14 1008.9 1008.4 0.0
23/04:30pm 33.5 34.1 21.0 48 8.4 N 19 28 10 15 1008.3 1007.7 0.0
23/04:00pm 35.1 34.8 19.5 40 10.4 NNW 20 33 11 18 1008.0 1007.4 0.0
23/03:30pm 35.4 35.2 20.5 41 10.0 NW 22 33 12 18 1008.2 1007.6 0.0
23/03:00pm 36.0 36.1 21.1 42 10.1 NW 22 33 12 18 1008.2 1007.6 0.0
23/02:30pm 35.8 36.2 20.9 42 10.1 NW 20 35 11 19 1008.5 1007.9 0.0
23/02:00pm 35.8 36.0 20.5 41 10.3 NW 20 30 11 16 1008.8 1008.3 0.0
23/01:30pm 36.9 36.5 19.4 36 11.7 WNW 20 30 11 16 1009.0 1008.5 0.0
23/01:00pm 37.5 37.4 19.9 35 11.8 WNW 20 32 11 17 1009.4 1008.9 0.0
23/12:30pm 36.8 36.4 19.3 36 11.6 NW 20 28 11 15 1009.7 1009.2 0.0
23/12:00pm 35.5 34.0 18.6 37 11.1 NW 24 35 13 19 1010.1 1009.6 0.0
23/11:30am 35.8 35.4 18.8 36 11.2 WNW 19 28 10 15 1010.9 1010.4 0.0
23/11:00am 35.5 34.7 18.1 35 11.4 NNW 19 32 10 17 1011.4 1010.9 0.0
23/10:30am 34.1 34.8 19.7 42 9.6 NW 15 20 8 11 1011.9 1011.4 0.0
23/10:00am 33.2 33.2 19.7 45 9.0 NNW 19 28 10 15 1011.9 1011.4 0.0
23/09:30am 32.6 33.5 20.8 49 7.9 NW 17 30 9 16 1012.2 1011.7 0.0
23/09:00am 32.0 33.6 21.5 53 7.1 N 15 22 8 12 1012.5 1012.0 0.0
23/08:30am 30.6 33.2 22.7 62 5.4 N 13 22 7 12 1012.8 1012.3 0.0
23/08:00am 29.3 32.1 23.0 69 4.3 NNW 13 20 7 11 1013.0 1012.5 0.0
23/07:30am 27.6 30.5 23.2 77 3.0 N 13 17 7 9 1012.9 1012.4 0.0
23/07:19am 27.3 30.8 23.5 80 2.6 N 11 20 6 11 1012.6 1012.1 0.0
23/07:00am 27.1 31.2 24.0 83 2.1 NW 9 15 5 8 1012.3 1011.8 0.0
23/06:41am 26.5 30.8 24.2 87 1.6 NW 9 17 5 9 1012.3 1011.8 0.0
23/06:30am 26.1 29.9 24.0 88 1.4 NW 11 17 6 9 1012.0 1011.5 0.0
23/06:00am 24.9 30.2 24.4 97 0.3 W 4 7 2 4 1011.9 1011.4 0.0
23/05:38am 24.1 28.7 23.8 98 0.2 W 6 9 3 5 1011.5 1011.0 0.0
23/05:30am 23.8 28.0 23.5 98 0.2 WNW 7 11 4 6 1011.4 1010.9 0.0
23/05:00am 23.6 27.8 23.1 97 0.3 NW 6 9 3 5 1011.1 1010.6 0.0
23/04:30am 24.0 28.3 23.3 96 0.5 WNW 6 7 3 4 1010.8 1010.3 0.0
23/04:00am 24.3 28.2 23.6 96 0.5 NNW 9 13 5 7 1010.4 1009.9 0.0
23/03:30am 24.6 28.6 23.7 95 0.6 N 9 13 5 7 1010.4 1009.9 0.0
23/03:00am 24.5 28.4 23.6 95 0.6 N 9 13 5 7 1010.4 1009.9 0.0
23/02:30am 24.9 28.5 23.7 93 0.8 N 11 15 6 8 1010.4 1009.9 0.0
23/02:00am 25.1 29.1 23.7 92 1.0 N 9 13 5 7 1010.5 1010.0 0.0
23/01:30am 25.3 28.9 23.7 91 1.1 N 11 15 6 8 1010.5 1010.0 0.0
23/01:00am 25.3 28.1 23.7 91 1.1 NW 15 20 8 11 1010.3 1009.8 0.0
23/12:30am 25.4 28.9 23.6 90 1.2 NNW 11 17 6 9 1011.1 1010.6 0.0
23/12:00am 25.7 28.9 23.7 89 1.4 NNW 13 19 7 10 1011.3 1010.8 0.0
 
Date/Time
WST
Temp
°C
App
Temp
°C
Dew
Point
Rel
Hum
%
Delta-T
°C
Wind Press
QNH
hPa
Press
MSL
hPa
Rain
since 9 am
mm
Dir
 
Spd
km/h
Gust
km/h
Spd
kts
Gust
kts
22/11:30pm 25.9 28.8 23.9 89 1.4 N 15 20 8 11 1011.4 1010.9 0.0
22/11:00pm 25.9 29.2 23.8 88 1.4 N 13 19 7 10 1011.8 1011.3 0.0
22/10:30pm 26.3 29.9 23.8 86 1.7 NNW 11 15 6 8 1011.9 1011.4 0.0
22/10:00pm 26.6 30.3 23.9 85 1.9 NNW 11 17 6 9 1011.9 1011.4 0.0
22/09:30pm 27.0 29.8 23.7 82 2.3 NNW 15 20 8 11 1012.0 1011.5 0.0
22/09:00pm 27.2 30.2 23.4 80 2.6 NNW 13 20 7 11 1012.1 1011.6 0.0
22/08:30pm 27.5 30.0 23.1 77 3.0 N 15 20 8 11 1011.5 1011.0 0.0
22/08:00pm 28.0 30.3 22.7 73 3.6 N 15 22 8 12 1011.3 1010.8 0.0
22/07:30pm 28.4 31.0 21.9 68 4.4 N 11 17 6 9 1010.9 1010.4 0.0
22/07:00pm 29.0 31.6 21.2 62 5.2 N 9 17 5 9 1010.5 1010.0 0.0
22/06:30pm 29.7 31.7 20.8 58 5.9 NNW 11 17 6 9 1010.1 1009.6 0.0
22/06:00pm 31.3 31.6 17.9 44 8.6 N 13 17 7 9 1009.9 1009.4 0.0
22/05:30pm 33.0 31.3 14.6 33 11.3 NNW 17 24 9 13 1009.4 1008.9 0.0
22/05:00pm 34.5 32.3 13.3 27 12.9 NW 17 26 9 14 1009.0 1008.5 0.0
22/04:30pm 35.7 33.3 12.6 25 14.0 NNW 17 26 9 14 1008.9 1008.4 0.0
22/04:00pm 36.6 32.7 10.7 21 15.3 NW 22 33 12 18 1008.7 1008.2 0.0
22/03:30pm 36.5 32.9 12.0 23 14.7 NW 22 30 12 16 1008.8 1008.3 0.0
22/03:00pm 36.9 34.0 13.0 24 14.6 NW 20 30 11 16 1008.8 1008.3 0.0
22/02:30pm 37.2 35.2 13.9 25 14.4 NW 17 26 9 14 1009.1 1008.6 0.0
22/02:00pm 37.0 34.8 14.3 26 14.1 NW 19 28 10 15 1009.4 1008.9 0.0
22/01:30pm 36.7 34.2 14.1 26 14.0 NW 20 39 11 21 1009.4 1008.9 0.0
22/01:00pm 37.3 35.4 15.7 27 13.7 NNW 20 28 11 15 1009.7 1009.2 0.0
22/12:30pm 36.9 35.3 16.5 30 13.1 NNW 20 32 11 17 1009.9 1009.4 0.0
22/12:00pm 36.5 35.6 18.1 33 12.1 NNW 20 30 11 16 1010.5 1010.0 0.0
22/11:30am 35.9 35.1 18.0 34 11.7 WNW 19 30 10 16 1011.0 1010.5 0.0
22/11:00am 35.2 34.9 19.1 38 10.6 NNW 19 28 10 15 1011.7 1011.2 0.0
22/10:30am 34.1 35.0 20.1 43 9.3 NNW 15 24 8 13 1012.1 1011.6 0.0
22/10:00am 33.3 34.7 21.1 48 8.2 N 15 24 8 13 1012.8 1012.3 0.0
22/09:30am 32.9 34.2 21.7 51 7.6 N 17 26 9 14 1012.7 1012.2 0.0
22/09:00am 31.3 33.0 22.3 58 6.1 NNW 17 28 9 15 1012.5 1012.0 0.0
22/08:30am 31.0 33.3 23.4 64 5.3 NNW 17 24 9 13 1012.8 1012.3 0.0
22/08:00am 29.4 31.1 23.1 69 4.3 N 19 26 10 14 1012.8 1012.3 0.0
22/07:45am 29.0 32.4 24.1 75 3.4 N 13 19 7 10 1012.7 1012.2 0.0
22/07:30am 28.1 31.4 23.9 78 2.9 N 13 19 7 10 1012.8 1012.3 0.0

Other Formats:

Comma delimited format used in spreadsheet applications
http://www.bom.gov.au/fwo/IDW60801/IDW60801.94204.axf

JavaScript Object Notation format (JSON) in row-major order
http://www.bom.gov.au/fwo/IDW60801/IDW60801.94204.json